TimeEDT,TemperatureF,Dew PointF,Humidity,Sea Level PressureIn,VisibilityMPH,Wind Direction,Wind SpeedMPH,Gust SpeedMPH,PrecipitationIn,Events,Conditions,WindDirDegrees,DateUTC
12:15 AM,66.2,62.6,88,29.99,10.0,Calm,Calm,-,N/A,,Clear,0,2013-05-16 04:15:00
12:35 AM,64.4,64.4,100,29.99,10.0,Calm,Calm,-,N/A,,Clear,0,2013-05-16 04:35:00
12:55 AM,64.4,62.6,94,29.99,10.0,SSW,3.5,-,N/A,,Clear,200,2013-05-16 04:55:00
1:15 AM,66.2,60.8,83,29.99,10.0,Calm,Calm,-,N/A,,Clear,0,2013-05-16 05:15:00
1:35 AM,66.2,60.8,83,29.98,10.0,Calm,Calm,-,N/A,,Clear,0,2013-05-16 05:35:00
1:55 AM,66.2,60.8,83,29.98,10.0,Calm,Calm,-,N/A,,Clear,0,2013-05-16 05:55:00
2:15 AM,66.2,60.8,83,29.97,10.0,Calm,Calm,-,N/A,,Clear,0,2013-05-16 06:15:00
2:35 AM,62.6,62.6,100,29.97,10.0,Calm,Calm,-,N/A,,Clear,0,2013-05-16 06:35:00
2:55 AM,62.6,62.6,100,29.97,10.0,Calm,Calm,-,N/A,,Clear,0,2013-05-16 06:55:00
3:15 AM,60.8,60.8,100,29.97,10.0,Calm,Calm,-,N/A,,Clear,0,2013-05-16 07:15:00
3:35 AM,59.0,59.0,100,29.97,10.0,Calm,Calm,-,N/A,,Clear,0,2013-05-16 07:35:00
3:55 AM,59.0,59.0,100,29.97,10.0,Calm,Calm,-,N/A,,Clear,0,2013-05-16 07:55:00
4:15 AM,59.0,59.0,100,29.97,10.0,Calm,Calm,-,N/A,,Clear,0,2013-05-16 08:15:00
4:35 AM,57.2,57.2,100,29.97,10.0,Calm,Calm,-,N/A,,Clear,0,2013-05-16 08:35:00
4:55 AM,57.2,57.2,100,29.97,10.0,Calm,Calm,-,N/A,,Clear,0,2013-05-16 08:55:00
5:15 AM,57.2,57.2,100,29.97,9.0,Calm,Calm,-,N/A,,Clear,0,2013-05-16 09:15:00
5:35 AM,57.2,57.2,100,29.98,8.0,Calm,Calm,-,N/A,,Clear,0,2013-05-16 09:35:00
5:55 AM,57.2,57.2,100,29.98,7.0,Calm,Calm,-,N/A,,Clear,0,2013-05-16 09:55:00
6:15 AM,57.2,57.2,100,29.98,4.0,Calm,Calm,-,N/A,,Clear,0,2013-05-16 10:15:00
6:35 AM,55.4,55.4,100,29.99,5.0,Calm,Calm,-,N/A,,Clear,0,2013-05-16 10:35:00
6:55 AM,55.4,55.4,100,30.00,5.0,Calm,Calm,-,N/A,,Clear,0,2013-05-16 10:55:00
7:15 AM,57.2,57.2,100,30.01,7.0,Calm,Calm,-,N/A,,Clear,0,2013-05-16 11:15:00
7:35 AM,57.2,57.2,100,30.01,9.0,Calm,Calm,-,N/A,,Clear,0,2013-05-16 11:35:00
7:55 AM,62.6,62.6,100,30.02,10.0,Calm,Calm,-,N/A,,Clear,0,2013-05-16 11:55:00
8:15 AM,66.2,64.4,94,30.02,2.5,Calm,Calm,-,N/A,,Clear,0,2013-05-16 12:15:00
8:35 AM,68.0,62.6,83,30.02,2.5,SW,3.5,-,N/A,,Haze,230,2013-05-16 12:35:00
8:55 AM,71.6,62.6,73,30.03,3.0,WSW,3.5,-,N/A,,Haze,240,2013-05-16 12:55:00
9:15 AM,71.6,62.6,73,30.03,5.0,WSW,3.5,-,N/A,,Haze,240,2013-05-16 13:15:00
9:35 AM,75.2,62.6,65,30.04,10.0,SW,4.6,-,N/A,,Clear,230,2013-05-16 13:35:00
9:55 AM,75.2,62.6,65,30.04,10.0,Calm,Calm,-,N/A,,Clear,0,2013-05-16 13:55:00
10:15 AM,75.2,64.4,69,30.04,10.0,Calm,Calm,-,N/A,,Clear,0,2013-05-16 14:15:00
10:35 AM,77.0,64.4,65,30.04,10.0,West,5.8,-,N/A,,Clear,260,2013-05-16 14:35:00
10:55 AM,78.8,64.4,61,30.05,10.0,SW,3.5,-,N/A,,Clear,230,2013-05-16 14:55:00
11:15 AM,78.8,62.6,57,30.05,10.0,SW,3.5,-,N/A,,Clear,220,2013-05-16 15:15:00
11:35 AM,80.6,62.6,54,30.05,10.0,West,4.6,-,N/A,,Clear,260,2013-05-16 15:35:00
11:55 AM,80.6,60.8,51,30.05,10.0,WSW,5.8,-,N/A,,Clear,250,2013-05-16 15:55:00
12:15 PM,80.6,60.8,51,30.04,10.0,West,4.6,-,N/A,,Clear,280,2013-05-16 16:15:00
12:35 PM,80.6,60.8,51,30.04,10.0,WSW,5.8,-,N/A,,Clear,240,2013-05-16 16:35:00
12:55 PM,80.6,59.0,48,30.03,10.0,SW,5.8,-,N/A,,Clear,230,2013-05-16 16:55:00
1:15 PM,78.8,59.0,51,30.03,10.0,SW,5.8,-,N/A,,Clear,230,2013-05-16 17:15:00
1:35 PM,78.8,59.0,51,30.03,10.0,SW,6.9,-,N/A,,Clear,230,2013-05-16 17:35:00
1:55 PM,77.0,59.0,54,30.03,10.0,WSW,6.9,-,N/A,,Clear,250,2013-05-16 17:55:00
2:35 PM,80.6,62.6,54,30.03,10.0,WSW,8.1,-,N/A,,Clear,250,2013-05-16 18:35:00
2:55 PM,78.8,62.6,57,30.02,10.0,SW,6.9,-,N/A,,Clear,230,2013-05-16 18:55:00
3:15 PM,80.6,62.6,54,30.02,10.0,SW,6.9,-,N/A,,Clear,220,2013-05-16 19:15:00
3:35 PM,80.6,64.4,58,30.01,10.0,SW,4.6,-,N/A,,Clear,230,2013-05-16 19:35:00
3:55 PM,78.8,64.4,61,30.01,10.0,SW,3.5,-,N/A,,Clear,230,2013-05-16 19:55:00
4:15 PM,77.0,64.4,65,30.00,10.0,SSW,3.5,-,N/A,,Clear,210,2013-05-16 20:15:00
4:35 PM,77.0,64.4,65,30.00,10.0,Calm,Calm,-,N/A,,Clear,0,2013-05-16 20:35:00
4:55 PM,75.2,64.4,69,29.99,10.0,SW,3.5,-,N/A,,Clear,220,2013-05-16 20:55:00
5:15 PM,75.2,64.4,69,29.99,10.0,SW,5.8,-,N/A,,Clear,230,2013-05-16 21:15:00
5:35 PM,78.8,64.4,61,29.99,10.0,SSW,5.8,-,N/A,,Clear,210,2013-05-16 21:35:00
5:55 PM,77.0,64.4,65,29.99,10.0,SSW,4.6,-,N/A,,Clear,210,2013-05-16 21:55:00
6:15 PM,77.0,62.6,61,29.98,10.0,SW,5.8,-,N/A,,Clear,230,2013-05-16 22:15:00
6:35 PM,77.0,62.6,61,29.98,10.0,SW,5.8,-,N/A,,Clear,220,2013-05-16 22:35:00
6:55 PM,77.0,64.4,65,29.99,10.0,SW,4.6,-,N/A,,Clear,220,2013-05-16 22:55:00
7:15 PM,77.0,62.6,61,29.99,10.0,SW,5.8,-,N/A,,Clear,220,2013-05-16 23:15:00
7:35 PM,75.2,62.6,65,30.00,10.0,WSW,4.6,-,N/A,,Clear,250,2013-05-16 23:35:00
7:55 PM,73.4,64.4,73,30.00,10.0,Calm,Calm,-,N/A,,Clear,0,2013-05-16 23:55:00
8:15 PM,71.6,66.2,83,30.00,10.0,Calm,Calm,-,N/A,,Clear,0,2013-05-17 00:15:00
8:35 PM,68.0,66.2,94,30.01,10.0,Calm,Calm,-,N/A,,Clear,0,2013-05-17 00:35:00
8:55 PM,68.0,68.0,100,30.02,10.0,Calm,Calm,-,N/A,,Clear,0,2013-05-17 00:55:00
9:15 PM,66.2,66.2,100,30.02,10.0,Calm,Calm,-,N/A,,Clear,0,2013-05-17 01:15:00
9:35 PM,64.4,64.4,100,30.02,10.0,Calm,Calm,-,N/A,,Clear,0,2013-05-17 01:35:00
9:55 PM,64.4,64.4,100,30.03,10.0,Calm,Calm,-,N/A,,Clear,0,2013-05-17 01:55:00
10:15 PM,68.0,66.2,94,30.03,10.0,Calm,Calm,-,N/A,,Clear,0,2013-05-17 02:15:00
10:35 PM,68.0,66.2,94,30.04,10.0,Calm,Calm,-,N/A,,Clear,0,2013-05-17 02:35:00
10:55 PM,66.2,66.2,100,30.04,10.0,West,3.5,-,N/A,,Clear,260,2013-05-17 02:55:00
11:15 PM,66.2,66.2,100,30.04,10.0,Calm,Calm,-,N/A,,Clear,0,2013-05-17 03:15:00
11:35 PM,64.4,64.4,100,30.04,10.0,Calm,Calm,-,N/A,,Clear,0,2013-05-17 03:35:00
11:55 PM,64.4,64.4,100,30.04,10.0,Calm,Calm,-,N/A,,Clear,0,2013-05-17 03:55:00